Temp
-11 -11 -11 -11 -11 -11 -11 -11 -11 -11 -12 -12 -11 -11 -11 -11 -11 -11 -11 -11 -11 -11 -10 -10 -10 -10 -9 -9 -9 -8 -8 -7 -7 -7 -7 -7 -6 -6 -6 -6 -5 -5
-12 -12 -12 -12 -12 -12 -12 -12 -12 -12 -12 -12 -12 -12 -12 -12 -12 -12 -12 -11 -11 -11 -11 -11 -11 -10 -10 -9 -9 -8 -8 -8 -8 -7 -7 -7 -7 -6 -6 -6 -6 -5
-12 -12 -12 -12 -12 -12 -12 -12 -12 -12 -12 -12 -12 -12 -12 -12 -12 -12 -12 -12 -12 -12 -12 -12 -11 -11 -11 -10 -10 -9 -9 -8 -8 -8 -7 -7 -7 -7 -6 -6 -6 -6
-13 -13 -13 -13 -13 -13 -13 -13 -13 -13 -13 -13 -13 -13 -13 -13 -13 -12 -12 -12 -12 -12 -12 -12 -12 -12 -11 -11 -10 -10 -9 -9 -9 -8 -8 -8 -7 -7 -7 -7 -6 -6
-13 -13 -13 -13 -13 -13 -13 -13 -13 -13 -13 -13 -13 -13 -13 -13 -13 -13 -13 -13 -13 -12 -12 -12 -12 -12 -12 -11 -11 -10 -10 -9 -9 -9 -8 -8 -8 -7 -7 -7 -7 -7
-14 -13 -13 -13 -13 -13 -13 -13 -13 -13 -13 -13 -13 -13 -13 -13 -13 -13 -13 -13 -13 -13 -13 -12 -12 -12 -12 -11 -11 -11 -10 -10 -9 -9 -9 -8 -8 -8 -7 -7 -7 -6
-14 -14 -14 -13 -14 -14 -13 -13 -13 -13 -13 -13 -13 -13 -13 -13 -13 -13 -13 -13 -13 -13 -13 -13 -12 -12 -12 -12 -11 -11 -10 -10 -10 -9 -9 -9 -8 -8 -8 -7 -7 -6
-14 -14 -14 -14 -14 -14 -14 -14 -14 -14 -13 -13 -13 -13 -13 -13 -13 -13 -13 -13 -13 -13 -13 -13 -13 -12 -12 -12 -11 -11 -11 -10 -10 -10 -10 -9 -9 -8 -8 -7 -7 -6
-14 -14 -14 -14 -14 -14 -14 -14 -14 -14 -14 -14 -13 -13 -13 -13 -13 -13 -13 -13 -13 -13 -13 -13 -13 -12 -12 -12 -12 -11 -11 -11 -10 -10 -10 -9 -9 -8 -8 -8 -8 -7
-15 -15 -15 -15 -14 -14 -14 -14 -14 -14 -14 -14 -14 -14 -14 -13 -13 -13 -13 -13 -13 -13 -13 -13 -13 -13 -12 -12 -12 -12 -12 -11 -11 -11 -10 -10 -9 -8 -8 -8 -8 -8
-15 -15 -15 -15 -15 -15 -15 -15 -15 -15 -15 -14 -14 -14 -14 -14 -14 -13 -13 -13 -13 -13 -13 -13 -13 -13 -12 -12 -12 -12 -12 -12 -12 -11 -11 -10 -10 -9 -9 -9 -8 -8
-15 -15 -15 -15 -15 -15 -15 -15 -15 -15 -15 -15 -15 -14 -14 -14 -14 -14 -14 -13 -13 -13 -13 -13 -13 -13 -13 -12 -12 -12 -12 -12 -12 -12 -11 -11 -11 -10 -10 -9 -9 -9
-15 -15 -15 -15 -15 -15 -15 -16 -16 -15 -15 -15 -15 -15 -15 -14 -14 -14 -14 -14 -13 -13 -13 -13 -13 -13 -13 -13 -12 -12 -12 -12 -12 -12 -12 -11 -11 -10 -10 -10 -9 -9
-16 -16 -16 -16 -16 -16 -16 -16 -16 -16 -15 -15 -15 -15 -15 -15 -14 -14 -14 -14 -14 -13 -13 -13 -13 -13 -13 -13 -13 -13 -12 -12 -12 -12 -12 -11 -11 -11 -10 -10 -10 -9
-16 -16 -16 -16 -16 -16 -16 -16 -16 -16 -16 -16 -15 -15 -15 -15 -15 -14 -14 -14 -14 -14 -13 -13 -13 -13 -13 -13 -13 -13 -13 -13 -13 -12 -12 -11 -11 -11 -11 -10 -10 -9
-16 -16 -17 -17 -17 -17 -16 -16 -16 -16 -16 -16 -16 -15 -15 -15 -15 -14 -14 -14 -14 -14 -13 -13 -13 -13 -13 -13 -13 -13 -13 -13 -13 -12 -12 -11 -11 -11 -11 -10 -10 -9
-17 -17 -17 -17 -17 -17 -17 -17 -17 -16 -16 -16 -16 -15 -15 -15 -15 -14 -14 -14 -14 -14 -13 -13 -13 -13 -13 -13 -12 -12 -12 -12 -12 -12 -12 -11 -11 -11 -10 -10 -9 -9
-17 -17 -17 -17 -17 -17 -17 -17 -17 -17 -16 -16 -16 -15 -15 -15 -15 -14 -14 -14 -13 -13 -13 -13 -13 -13 -12 -12 -11 -11 -11 -11 -11 -11 -11 -11 -10 -10 -10 -10 -9 -8
-17 -18 -18 -18 -18 -18 -17 -17 -17 -17 -17 -16 -16 -15 -15 -15 -14 -14 -14 -13 -13 -13 -13 -13 -12 -12 -12 -11 -11 -10 -10 -10 -10 -10 -10 -10 -10 -10 -10 -9 -9 -8
-18 -18 -18 -18 -18 -18 -18 -18 -17 -17 -17 -16 -16 -15 -15 -14 -14 -14 -13 -13 -13 -12 -12 -12 -11 -11 -11 -10 -10 -9 -9 -9 -9 -9 -9 -9 -9 -9 -9 -9 -9 -8
-18 -18 -18 -18 -18 -18 -18 -18 -17 -17 -16 -16 -16 -15 -15 -14 -14 -13 -13 -12 -12 -12 -12 -11 -10 -10 -10 -9 -9 -8 -8 -8 -8 -8 -9 -9 -9 -9 -9 -9 -9 -8
-19 -19 -19 -19 -18 -18 -18 -18 -17 -17 -16 -16 -15 -15 -14 -14 -13 -13 -12 -12 -12 -11 -11 -11 -9 -8 -8 -8 -8 -7 -7 -6 -7 -7 -8 -8 -8 -8 -8 -8 -8 -8
-19 -19 -19 -19 -19 -18 -18 -18 -17 -17 -16 -15 -15 -15 -14 -13 -13 -12 -12 -12 -11 -11 -11 -11 -9 -8 -7 -8 -7 -7 -6 -6 -6 -6 -6 -7 -8 -8 -8 -8 -8 -8
-19 -19 -19 -19 -19 -18 -18 -18 -17 -17 -16 -15 -15 -14 -14 -13 -13 -12 -12 -11 -11 -10 -10 -10 -9 -8 -7 -7 -7 -7 -6 -6 -6 -5 -5 -6 -7 -7 -7 -8 -8 -8
-19 -19 -19 -19 -19 -18 -18 -18 -17 -16 -16 -15 -15 -14 -14 -13 -13 -12 -12 -11 -10 -9 -9 -9 -9 -8 -7 -7 -7 -7 -6 -6 -6 -5 -5 -5 -6 -7 -7 -7 -7 -7
-19 -19 -19 -19 -19 -18 -18 -17 -17 -16 -15 -15 -14 -14 -13 -13 -12 -12 -11 -10 -9 -9 -8 -8 -8 -7 -7 -7 -7 -7 -6 -6 -6 -6 -5 -5 -6 -6 -6 -6 -7 -7
Height
821 819 817 814 812 809 807 805 804 802 800 798 797 795 793 792 790 789 788 786 784 783 781 780 779 778 777 776 776 776 775 775 775 775 775 775 774 774 774 774 774 774
820 818 815 813 810 808 806 804 802 800 798 797 795 793 791 789 788 786 784 783 781 780 779 778 776 775 774 773 773 772 772 771 771 771 771 770 770 770 770 770 770 770
819 816 814 811 808 806 804 802 800 798 796 794 792 791 788 787 785 783 781 780 779 777 776 775 774 773 772 771 770 770 769 768 767 767 767 766 766 765 765 765 765 765
817 814 812 809 807 805 802 800 798 796 794 792 790 788 786 784 782 780 779 777 776 774 773 772 771 770 768 768 767 766 765 765 764 764 764 763 763 762 762 762 761 761
816 813 811 808 805 803 801 798 796 794 792 789 787 785 783 781 780 778 776 774 773 771 770 768 767 766 765 764 763 762 761 761 760 760 760 759 759 759 758 758 758 757
815 812 809 806 804 801 799 796 794 792 789 787 785 783 781 779 777 775 773 771 770 768 767 765 764 762 761 760 760 759 758 757 756 756 756 755 755 755 755 755 754 753
813 810 808 805 802 800 797 794 792 789 787 785 782 780 778 776 774 772 770 768 767 765 763 762 761 759 758 757 756 755 754 754 753 753 752 751 751 751 751 751 749 749
811 808 806 803 801 798 795 792 790 787 785 782 780 777 775 773 771 769 767 765 764 762 760 759 758 756 755 754 753 752 751 751 750 750 749 748 748 747 747 746 745 745
810 807 804 802 799 796 793 790 788 785 783 780 777 775 772 770 768 766 764 762 761 759 757 756 755 753 752 751 750 749 748 748 747 746 746 745 744 743 743 743 742 742
808 805 803 800 797 794 791 788 786 783 780 778 775 772 770 767 765 763 761 759 757 756 754 753 752 751 750 749 748 747 746 744 744 743 742 741 740 740 740 740 740 739
807 804 801 798 795 793 789 786 784 781 778 775 772 770 767 765 762 760 758 756 754 753 751 750 748 747 746 745 744 744 743 742 741 740 739 738 738 737 737 737 737 736
806 802 799 796 793 791 787 784 782 778 776 773 770 767 764 762 759 757 755 753 751 749 748 746 745 744 742 741 741 740 739 738 738 737 736 736 735 735 734 734 734 733
804 801 798 795 792 789 785 783 779 776 773 770 767 764 761 759 756 754 752 750 748 746 744 743 741 740 739 738 737 736 735 735 734 734 733 732 732 732 731 731 730 730
803 800 797 793 790 787 784 780 777 774 770 767 764 761 758 756 753 750 748 746 744 742 741 739 737 736 735 733 733 732 731 731 730 730 729 728 728 728 728 727 727 726
802 798 795 792 788 785 782 778 774 771 768 764 761 758 755 752 749 747 745 742 740 739 737 735 734 732 730 729 728 728 727 727 726 725 725 724 724 724 723 723 722 722
800 797 793 790 787 783 779 776 772 769 765 761 758 755 752 749 746 744 741 739 737 735 733 731 729 727 726 724 724 723 723 723 722 721 721 720 720 720 719 719 718 718
799 795 792 788 785 781 777 774 770 766 762 759 755 752 748 746 743 740 738 735 733 731 729 727 725 722 721 720 719 719 719 719 718 717 717 716 716 716 715 715 715 714
797 794 790 786 783 779 775 771 767 763 760 756 752 749 745 742 740 737 734 732 730 727 725 722 720 718 716 715 715 715 715 715 715 714 713 713 712 712 711 711 711 711
796 793 789 785 781 777 773 769 765 761 758 754 749 746 742 739 736 733 730 728 726 724 721 719 716 714 712 712 711 711 711 711 711 710 709 709 708 708 707 707 707 707
795 791 787 783 779 775 771 767 763 759 755 751 747 743 740 737 733 730 727 725 723 720 718 715 712 710 709 708 707 707 707 707 706 706 705 704 704 704 703 703 703 704
793 789 785 781 777 773 769 764 760 756 752 749 745 742 738 735 731 728 725 722 720 718 715 712 709 707 706 705 704 704 703 702 701 700 699 699 699 699 699 699 700 700
792 787 784 780 775 771 767 762 758 754 751 747 744 740 737 733 730 727 723 720 717 715 713 710 706 705 703 702 701 700 699 698 696 694 693 693 693 694 695 696 696 696
790 786 782 778 774 770 765 761 757 753 749 746 742 738 735 732 728 725 722 719 715 713 711 708 704 702 701 700 698 697 696 694 692 690 689 688 688 689 690 692 692 692
789 785 781 777 773 768 764 760 756 752 748 745 741 738 734 730 727 723 720 717 714 711 708 706 702 699 698 697 695 695 694 692 690 688 686 684 684 685 686 688 688 689
787 784 780 776 772 767 763 758 755 751 747 744 741 737 733 729 726 723 718 715 711 708 705 703 700 697 695 694 692 692 691 690 688 686 684 683 683 683 684 685 685 685
786 782 778 774 770 766 761 757 753 750 746 743 739 736 732 728 725 722 717 713 709 706 702 700 698 695 693 691 690 689 688 687 686 685 683 682 681 681 681 682 682 682
Wind_Speed
20 21 23 23 22 22 21 20 20 20 20 19 19 19 19 20 21 22 23 23 23 22 22 21 21 21 22 21 20 20 20 20 19 17 17 18 18 19 19 20 21 22
23 24 25 23 21 20 20 21 21 21 21 21 21 21 22 23 23 23 23 22 21 21 20 20 19 19 18 18 19 20 21 22 20 18 18 20 20 20 21 21 22 22
25 24 23 21 20 21 21 22 22 22 22 22 22 23 23 23 23 22 21 21 21 21 21 21 21 20 18 18 19 20 22 23 22 20 20 21 21 21 22 21 22 22
24 23 21 20 20 21 22 22 22 21 21 22 22 23 23 23 22 22 22 22 22 22 23 24 23 22 20 20 20 21 23 23 22 21 21 21 21 21 22 21 21 22
22 22 21 21 21 21 21 22 22 22 22 22 23 23 23 23 23 23 23 23 23 24 24 24 25 24 23 22 22 23 24 23 22 22 22 23 22 21 22 22 22 23
22 22 22 22 21 21 22 22 23 23 22 22 23 23 22 23 23 23 23 23 24 24 24 24 24 23 23 22 23 24 24 24 24 23 24 25 24 23 22 23 24 24
23 22 22 21 22 22 23 23 23 22 22 23 23 23 23 23 23 23 23 23 23 23 23 23 22 22 22 21 22 24 24 24 24 25 25 25 24 24 24 24 24 24
24 23 22 22 22 23 23 23 23 23 23 23 23 23 23 23 23 23 23 22 22 23 22 21 21 21 20 20 21 22 23 23 24 24 24 25 24 25 25 22 20 22
24 23 23 23 23 23 23 23 23 23 23 23 23 23 22 22 23 23 23 23 23 23 22 21 20 20 19 19 20 21 21 22 22 23 23 23 23 23 21 18 18 21
24 24 23 23 23 23 24 24 24 24 23 23 23 23 22 22 22 22 23 23 23 23 22 22 22 22 21 21 21 21 20 19 19 19 20 19 19 18 17 16 17 20
24 24 24 24 24 24 24 24 24 23 23 23 23 23 23 22 22 22 22 22 22 22 22 22 22 23 23 23 23 23 22 21 19 19 19 18 18 18 17 18 18 19
24 24 24 25 24 24 24 24 24 24 23 23 22 22 22 22 22 22 22 22 23 22 23 23 23 23 23 23 23 24 24 23 22 21 21 20 19 19 19 20 19 19
24 24 25 25 24 24 25 25 25 24 24 23 22 22 22 22 22 22 22 22 22 23 23 23 23 23 23 23 23 24 24 24 23 22 22 21 21 22 21 21 21 22
25 25 24 24 24 25 25 25 24 24 24 23 22 22 22 22 22 22 22 21 22 22 22 22 23 23 23 23 23 23 24 24 23 22 23 22 22 23 22 24 27 27
25 25 25 25 25 25 25 25 24 24 23 23 22 21 20 21 21 21 21 21 21 21 21 21 21 21 21 22 22 22 22 22 22 23 25 24 23 22 23 28 33 32
25 25 25 25 25 25 25 25 25 23 22 22 22 21 21 21 21 21 21 20 20 20 21 20 19 19 21 22 23 22 21 20 20 22 23 23 23 22 22 26 30 31
25 25 25 25 25 26 24 25 25 24 23 23 23 23 23 22 21 21 21 21 21 21 21 21 22 22 23 24 25 25 24 22 21 21 21 21 22 22 21 22 24 25
25 25 26 26 25 24 23 24 26 26 26 26 26 26 25 23 22 23 23 22 21 22 23 24 25 25 24 25 25 25 24 24 23 22 21 21 21 21 21 20 20 21
25 25 26 26 25 24 24 25 26 28 27 27 28 28 26 25 25 25 24 23 22 22 23 24 26 25 23 23 24 24 23 23 24 24 23 23 22 21 21 20 20 20
26 26 26 25 25 25 26 27 27 28 28 28 28 26 25 26 26 25 25 24 23 23 22 23 24 23 21 20 21 21 21 22 24 25 25 26 25 24 22 22 21 20
26 26 25 25 26 27 27 28 28 28 28 27 25 23 23 24 24 23 24 25 23 21 22 23 24 22 19 19 20 20 20 22 25 27 27 27 28 27 25 23 22 21
26 25 25 25 26 27 27 28 28 28 28 26 23 22 22 21 20 20 21 23 23 20 20 23 24 21 17 17 18 18 19 19 21 27 30 29 28 28 26 24 23 22
25 24 25 26 27 27 27 27 28 27 26 25 23 22 22 22 21 21 19 19 22 21 20 23 25 22 18 17 17 17 18 17 15 19 25 28 28 26 25 24 23 22
24 24 26 27 27 27 28 28 28 26 25 24 23 23 24 25 23 22 21 19 21 25 24 23 24 23 20 18 16 16 16 15 13 14 15 20 24 22 22 22 22 23
23 25 26 26 26 29 31 30 28 26 24 23 22 22 22 22 19 17 20 23 25 28 27 23 24 24 21 18 16 16 15 13 12 12 10 10 15 17 19 21 20 21
23 25 26 26 27 30 32 32 29 25 23 22 22 21 19 19 19 18 21 24 27 27 27 24 23 23 22 19 16 15 14 13 11 10 8 6 7 10 14 18 19 19
Wind_Direction
319 317 314 310 305 301 301 301 300 298 296 292 289 286 285 283 282 281 280 279 279 278 276 275 274 270 268 267 266 263 261 260 260 260 260 259 259 259 257 255 253 254
317 315 312 308 304 301 301 300 299 296 293 290 288 286 285 285 284 282 279 276 275 274 275 277 278 275 271 266 262 260 261 262 263 264 264 263 262 260 257 255 253 253
317 315 313 309 305 302 301 300 297 294 291 289 287 287 286 286 285 283 278 275 274 274 273 274 275 274 271 267 263 261 261 263 264 265 265 263 262 260 258 256 253 251
318 317 315 311 306 304 302 301 299 296 294 291 289 288 287 286 284 281 278 276 274 273 273 272 272 270 267 264 262 260 260 262 263 262 262 261 259 258 257 255 253 252
319 318 315 311 308 305 304 301 300 298 295 293 291 289 287 285 284 281 279 277 275 274 274 272 270 268 264 262 260 259 259 260 260 259 258 258 257 255 255 255 254 253
319 317 315 313 309 308 306 303 301 300 297 295 292 290 288 286 284 281 279 278 276 275 274 273 272 268 264 259 257 257 257 258 259 258 257 257 256 256 256 256 255 253
320 319 317 315 312 310 307 304 302 300 298 297 294 291 288 286 284 283 281 279 278 276 274 273 271 269 265 259 256 255 256 258 258 257 256 257 257 257 257 256 255 254
321 321 319 317 314 311 308 306 304 302 300 298 295 292 289 287 285 283 281 279 278 276 275 272 270 268 265 259 256 255 256 257 256 256 255 255 254 253 252 255 261 263
322 321 320 318 316 313 311 310 307 305 303 299 296 294 291 288 286 284 282 279 277 276 273 271 270 268 265 262 259 258 258 257 254 253 253 251 249 247 248 257 267 273
322 321 320 318 318 316 314 312 310 307 305 301 299 296 292 290 287 284 282 279 276 274 271 269 267 266 265 263 261 262 264 263 258 256 257 256 253 251 255 264 266 273
322 321 320 319 318 316 314 313 311 308 305 303 300 297 294 291 288 285 282 278 275 273 270 268 267 265 263 262 260 260 261 264 264 263 264 265 263 262 263 267 268 270
322 321 320 319 317 315 314 312 311 308 305 303 300 298 295 292 289 285 281 277 274 272 270 268 267 265 263 261 259 257 257 260 262 261 262 263 262 264 263 263 266 270
321 320 319 317 316 315 313 311 310 307 305 303 300 298 295 292 289 285 281 278 274 271 269 267 266 263 261 259 258 256 255 257 258 258 259 260 259 260 260 260 264 269
320 319 317 316 315 314 312 310 309 308 305 303 300 297 294 291 288 285 282 279 274 271 269 266 264 262 259 256 254 253 252 253 255 255 256 258 260 258 257 262 267 270
319 318 316 315 314 314 313 311 309 308 306 303 301 297 294 291 288 285 282 278 275 272 269 266 263 260 257 253 251 249 249 249 250 252 255 257 259 259 257 264 271 272
319 318 316 315 314 314 313 312 311 309 306 304 301 298 296 293 289 286 282 278 275 271 268 265 261 258 255 252 251 248 246 246 247 249 253 254 256 257 256 262 268 269
319 318 317 315 315 314 313 312 312 310 307 306 304 302 301 298 293 289 285 281 277 274 272 267 264 264 261 257 255 252 248 247 248 249 251 251 250 252 253 254 259 260
319 319 317 315 315 313 312 311 311 310 309 309 309 310 309 305 301 299 296 293 287 283 281 279 278 277 271 263 259 256 252 247 246 247 249 248 246 246 248 249 249 250
320 319 317 316 315 313 312 311 311 311 311 312 314 316 315 312 311 310 307 304 300 294 291 289 291 290 282 271 263 259 255 250 245 244 244 245 245 244 243 243 243 245
320 318 317 315 314 315 314 312 312 312 313 316 318 317 314 314 316 315 313 312 308 305 302 299 300 305 298 282 270 263 258 251 245 242 242 242 243 242 242 241 239 240
319 317 316 314 314 315 314 314 315 315 316 319 317 313 311 312 314 314 315 317 314 310 307 307 312 317 310 291 280 274 266 256 245 240 239 238 239 239 240 241 238 237
317 316 315 314 314 314 313 315 317 318 319 319 315 311 311 310 310 311 312 315 317 314 307 310 318 323 317 304 294 288 285 276 257 243 237 233 233 233 235 239 238 236
315 315 314 313 315 314 313 315 317 316 319 321 317 313 314 314 315 316 313 311 314 316 311 310 317 324 323 313 303 295 295 296 284 263 245 234 230 228 227 234 236 234
314 313 312 312 313 313 313 315 316 315 318 322 318 313 314 318 319 318 319 315 314 320 319 312 313 321 324 317 309 302 299 296 297 297 270 240 230 224 220 229 234 233
313 312 312 311 310 313 316 317 317 316 317 319 316 311 313 315 313 309 314 319 321 325 326 319 314 319 324 321 312 304 303 299 294 301 298 252 230 221 218 224 231 233
312 311 312 310 311 315 320 321 319 316 315 315 314 314 313 312 312 311 310 316 321 323 324 323 317 318 323 324 313 301 300 300 291 288 297 280 239 225 222 222 224 229